User: anonymous   Login
Location: Stillwell
(40.4602°N, 82.0928°W)
Time: 19:05:45
(UTC-04:00)
Language:

Cosmos 2333 Rocket - Orbit

View from above orbital plane
View from above orbital plane
View from above satellite
View from above satellite

Ground track
Ground track

The orbit data is extracted from the following two-line orbital elements,

1 24298U 96051B   16209.80110543  .00000110  00000-0  85889-4 0  9990
2 24298  70.8380  25.8033 0017817 295.8846  64.0436 14.12416618 26016
Epoch (UTC): 27 July 2016 19:13:35
Eccentricity: 0.0017817
inclination: 70.8380°
perigee height: 838 km
apogee height: 864 km
right ascension of ascending node: 25.8033°
argument of perigee: 295.8846°
revolutions per day: 14.12416618
mean anomaly at epoch: 64.0436°
orbit number at epoch: 2601

The dashed part of the orbit path shows where the satellite is in the earth's shadow,  

DLR